KLM806 EDDW-EDDF

Flight info

Callsign KLM806
Flight time N/A
Altitude 24000
Route WIMCI1Z/27 WIMCI Y804 PIROT T152 KERAX KERA5A EDDF/25R
Aircraft B738/M-V/N

Departure

Time 2026-04-28 19:15
Airport Bremen Airport (EDDW)

Arrival

Time N/A
Airport Frankfurt Main Airport (EDDF)
Time Latitude Longitude Altitude Speed Heading
2026-04-28 18:48 53.05135 8.78595 21 ft 0 kts 48°
2026-04-28 19:08 53.05130 8.78585 21 ft 2 kts 48°
2026-04-28 19:09 53.05119 8.78565 21 ft 2 kts 48°
2026-04-28 19:09 53.05109 8.78545 21 ft 2 kts 48°
2026-04-28 19:09 53.05097 8.78526 21 ft 2 kts 36°
2026-04-28 19:09 53.05084 8.78520 21 ft 1 kts 331°
2026-04-28 19:10 53.05079 8.78526 21 ft 0 kts 319°
2026-04-28 19:11 53.05096 8.78498 21 ft 11 kts 315°
2026-04-28 19:12 53.05144 8.78389 21 ft 12 kts 302°
2026-04-28 19:12 53.05181 8.78243 21 ft 14 kts 283°
2026-04-28 19:12 53.05186 8.78075 21 ft 16 kts 251°
2026-04-28 19:12 53.05130 8.77922 21 ft 15 kts 229°
2026-04-28 19:13 53.05061 8.77796 21 ft 14 kts 227°
2026-04-28 19:13 53.04990 8.77664 21 ft 17 kts 227°
2026-04-28 19:13 53.04905 8.77531 21 ft 16 kts 215°
2026-04-28 19:13 53.04806 8.77460 21 ft 13 kts 191°
2026-04-28 19:14 53.04762 8.77451 21 ft 4 kts 182°
2026-04-28 19:14 53.04704 8.77461 21 ft 10 kts 155°
2026-04-28 19:14 53.04663 8.77545 21 ft 12 kts 109°
2026-04-28 19:14 53.04658 8.77587 21 ft 0 kts 89°
2026-04-28 19:15 53.04660 8.77670 21 ft 27 kts 88°
2026-04-28 19:15 53.04679 8.78424 21 ft 102 kts 88°
2026-04-28 19:15 53.04708 8.79952 151 ft 152 kts 89°
2026-04-28 19:15 53.04691 8.81121 684 ft 151 kts 91°
2026-04-28 19:16 53.04608 8.83369 1978 ft 143 kts 93°
2026-04-28 19:16 53.04442 8.85092 2536 ft 159 kts 99°
2026-04-28 19:16 53.04091 8.86904 3232 ft 167 kts 108°
2026-04-28 19:16 53.03516 8.88528 4175 ft 159 kts 121°
2026-04-28 19:17 53.02732 8.89737 5069 ft 153 kts 138°
2026-04-28 19:17 53.01734 8.90557 5504 ft 179 kts 153°
2026-04-28 19:17 53.00397 8.91133 5685 ft 216 kts 163°